Regional Weather Roundup
Issued by NWS

Home | Current Version | Previous Version | Graphics & Text | Print | Product List | Glossary On
Versions: 1 2 3 4 5 6 7 8 9 10 11 12 13 14 15 16 17 18 19 20 21 22 23 24 25 26 27 28 29 30 31 32 33 34 35 36 37 38 39 40 41 42 43 44 45 46 47 48 49 50
587
ASUS45 KCYS 300410
RWRWY

WYOMING REGIONAL WEATHER ROUNDUP
NATIONAL WEATHER SERVICE CHEYENNE WY
1000 PM MDT FRI APR 29 2016

NOTE:  "FAIR" INDICATES FEW OR NO CLOUDS BELOW 12,000 FEET
WITH NO SIGNIFICANT WEATHER AND/OR OBSTRUCTIONS TO VISIBILITY.

WYZ001-300500-
YELLOWSTONE NATIONAL PARK

CITY           SKY/WX    TMP DP  RH WIND       PRES   REMARKS
LK YELLOWSTONE   N/A     31  26  82 CALM      29.96R
W YELLOWSTONE  NOT AVBL

$$
WYZ002>013-054>058-071-098>099-300500-
NORTHERN WYOMING

CITY           SKY/WX    TMP DP  RH WIND       PRES   REMARKS
JACKSON        CLOUDY    37  36  93 CALM      29.93R
CODY           CLOUDY    39  34  81 SW7       29.99R WCI  34
GREYBULL       CLOUDY    48  32  53 S8        29.97R
WORLAND        CLOUDY    44  38  79 SW5       29.97S
SHERIDAN       CLOUDY    42  36  79 CALM      30.02S
BUFFALO          N/A    N/A N/A N/A MISG      30.02S
GILLETTE       CLOUDY    39  37  92 E6        30.01S WCI  35
HULETT         CLOUDY    39  34  81 E6        30.05R WCI  35
NEWCASTLE      CLOUDY    41  32  70 N7        30.00F

$$
WYZ014>020-022>026-101>103-300500-
CENTRAL WYOMING

CITY           SKY/WX    TMP DP  RH WIND       PRES   REMARKS
BIG PINEY      CLOUDY    35  30  82 S10       29.92R WCI  27
PINEDALE       LGT SNOW  32  32 100 S5        29.94R WCI  27
DUBOIS         CLOUDY    30  28  93 SE10      29.96R WCI  21
LANDER         LGT SNOW  33  32  96 CALM      29.98R FOG
RIVERTON       LGT RAIN  35  33  92 NE5       29.99R WCI  31
CASPER         CLOUDY    35  32  88 E9        29.96S WCI  28
DOUGLAS        LGT SNOW  34  33  96 E9        29.99R FOG     WCI  27

$$
WYZ021-027>030-104>119-300500-
SOUTHERN WYOMING

CITY           SKY/WX    TMP DP  RH WIND       PRES   REMARKS
EVANSTON       MOCLDY    36  27  69 E7        29.89R WCI  30
KEMMERER         N/A     32  28  86 E7        29.92R WCI  26
FORT BRIDGER   PTCLDY    34  32  93 SE8       29.94R WCI  27
ROCK SPRINGS   CLOUDY    35  29  78 NE13      29.92R WCI  26
DIXON          FAIR      36  31  82 W6        29.88R WCI  31
RAWLINS        CLOUDY    31  29  92 NE14      29.90R FOG     WCI  21
SARATOGA       MIX PCPN  32  32 100 S3        29.88R
LARAMIE        LGT SNOW  28  27  96 N6        29.89S FOG     WCI  22
CHEYENNE       LGT SNOW  31  29  92 N8        29.90S FOG     WCI  23
TORRINGTON     LGT SNOW  33  32  96 NW5       29.95S FOG     WCI  29
PINE BLUFFS    LGT SNOW  32  32 100 N6        29.92S WCI  26

$$




USA.gov is the U.S. government's official web portal to all federal, state and local government web resources and services.